Tiempo cada hora Almachar

Hoy, 3 Agosto, Martes

Tiempo Temperatura Precipitaciones Viento Presión Humedad
00:00 +22°C° 0 mm 1 mps 736 mmHg 86%
01:00 +22°C° 0 mm 1 mps 736 mmHg 87%
02:00 +21°C° 0 mm 1 mps 736 mmHg 87%
03:00 +20°C° 0 mm 2 mps 736 mmHg 88%
04:00 +21°C° 0 mm 1 mps 736 mmHg 87%
05:00 +21°C° 0 mm 1 mps 736 mmHg 86%
06:00 +22°C° 0 mm 1 mps 736 mmHg 85%
07:00 +23°C° 0 mm 1 mps 737 mmHg 76%
08:00 +25°C° 0 mm 2 mps 737 mmHg 66%
09:00 +27°C° 0 mm 2 mps 737 mmHg 56%
10:00 +28°C° 0 mm 2 mps 737 mmHg 52%
11:00 +29°C° 0 mm 2 mps 737 mmHg 49%
12:00 +30°C° 0 mm 3 mps 737 mmHg 46%
13:00 +31°C° 0 mm 3 mps 736 mmHg 47%
14:00 +31°C° 0 mm 3 mps 736 mmHg 48%
15:00 +31°C° 0 mm 3 mps 735 mmHg 49%
16:00 +30°C° 0 mm 3 mps 735 mmHg 53%
17:00 +29°C° 0 mm 2 mps 735 mmHg 57%
18:00 +27°C° 0 mm 2 mps 735 mmHg 61%
19:00 +26°C° 0 mm 1 mps 736 mmHg 65%
20:00 +25°C° 0 mm 1 mps 736 mmHg 70%
21:00 +24°C° 0 mm 1 mps 736 mmHg 75%
22:00 +24°C° 0 mm 1 mps 736 mmHg 72%
23:00 +24°C° 0 mm 1 mps 736 mmHg 70%

Mañana, 4 Agosto, Miércoles

Tiempo Temperatura Precipitaciones Viento Presión Humedad
00:00 +24°C° 0 mm 1 mps 736 mmHg 68%
01:00 +24°C° 0 mm 1 mps 736 mmHg 67%
02:00 +24°C° 0 mm 1 mps 735 mmHg 65%
03:00 +24°C° 0 mm 1 mps 735 mmHg 64%
04:00 +24°C° 0 mm 1 mps 735 mmHg 62%
05:00 +24°C° 0 mm 1 mps 735 mmHg 61%
06:00 +24°C° 0 mm 1 mps 735 mmHg 59%
07:00 +26°C° 0 mm 2 mps 735 mmHg 52%
08:00 +28°C° 0 mm 2 mps 735 mmHg 45%
09:00 +30°C° 0 mm 2 mps 735 mmHg 38%
10:00 +31°C° 0 mm 3 mps 735 mmHg 35%
11:00 +34°C° 0 mm 4 mps 735 mmHg 31%
12:00 +35°C° 0 mm 4 mps 735 mmHg 28%
13:00 +35°C° 0 mm 4 mps 735 mmHg 27%
14:00 +36°C° 0 mm 4 mps 735 mmHg 26%
15:00 +36°C° 0 mm 4 mps 734 mmHg 25%
16:00 +36°C° 0 mm 4 mps 734 mmHg 26%
17:00 +35°C° 0 mm 4 mps 734 mmHg 27%
18:00 +35°C° 0 mm 3 mps 734 mmHg 28%
19:00 +33°C° 0 mm 3 mps 735 mmHg 30%
20:00 +31°C° 0 mm 3 mps 735 mmHg 33%
21:00 +30°C° 0 mm 2 mps 735 mmHg 35%
22:00 +29°C° 0 mm 2 mps 735 mmHg 37%
23:00 +29°C° 0 mm 2 mps 735 mmHg 38%

Pasado mañana, 5 Agosto, Jueves

Tiempo Temperatura Precipitaciones Viento Presión Humedad
00:00 +28°C° 0 mm 2 mps 735 mmHg 40%
01:00 +28°C° 0 mm 2 mps 735 mmHg 42%
02:00 +27°C° 0 mm 2 mps 735 mmHg 43%
03:00 +27°C° 0 mm 2 mps 735 mmHg 45%
04:00 +27°C° 0 mm 2 mps 735 mmHg 46%
05:00 +26°C° 0 mm 2 mps 735 mmHg 48%
06:00 +26°C° 0 mm 2 mps 735 mmHg 49%
07:00 +28°C° 0 mm 2 mps 735 mmHg 46%
08:00 +29°C° 0 mm 2 mps 736 mmHg 44%
09:00 +31°C° 0 mm 3 mps 736 mmHg 42%
10:00 +33°C° 0 mm 3 mps 736 mmHg 40%
11:00 +34°C° 0 mm 3 mps 736 mmHg 39%
12:00 +35°C° 0 mm 3 mps 736 mmHg 38%
13:00 +35°C° 0 mm 3 mps 735 mmHg 37%
14:00 +35°C° 0 mm 3 mps 735 mmHg 37%
15:00 +36°C° 0 mm 3 mps 735 mmHg 36%
16:00 +35°C° 0 mm 2 mps 734 mmHg 36%
17:00 +35°C° 0 mm 2 mps 734 mmHg 36%
18:00 +34°C° 0 mm 2 mps 734 mmHg 36%
19:00 +32°C° 0 mm 2 mps 734 mmHg 40%
20:00 +30°C° 0 mm 1 mps 734 mmHg 43%
21:00 +28°C° 0 mm 1 mps 734 mmHg 47%
22:00 +28°C° 0 mm 1 mps 734 mmHg 47%
23:00 +27°C° 0 mm 1 mps 734 mmHg 48%

6 Agosto, Viernes

Tiempo Temperatura Precipitaciones Viento Presión Humedad
00:00 +27°C° 0 mm 1 mps 734 mmHg 48%
01:00 +27°C° 0 mm 1 mps 733 mmHg 46%
02:00 +27°C° 0 mm 1 mps 733 mmHg 44%
03:00 +27°C° 0 mm 1 mps 732 mmHg 42%
04:00 +27°C° 0 mm 1 mps 732 mmHg 42%
05:00 +27°C° 0 mm 1 mps 733 mmHg 42%
06:00 +26°C° 0 mm 1 mps 733 mmHg 42%
07:00 +29°C° 0 mm 1 mps 733 mmHg 36%
08:00 +31°C° 0 mm 2 mps 733 mmHg 31%
09:00 +34°C° 0 mm 2 mps 733 mmHg 26%
10:00 +35°C° 0 mm 2 mps 732 mmHg 25%
11:00 +36°C° 0 mm 3 mps 732 mmHg 23%
12:00 +38°C° 0 mm 3 mps 732 mmHg 22%
13:00 +38°C° 0 mm 4 mps 732 mmHg 23%
14:00 +38°C° 0 mm 4 mps 731 mmHg 23%
15:00 +38°C° 0 mm 4 mps 731 mmHg 23%
16:00 +39°C° 0 mm 5 mps 731 mmHg 22%
17:00 +37°C° 0 mm 5 mps 731 mmHg 21%
18:00 +36°C° 0 mm 5 mps 730 mmHg 20%
19:00 +34°C° 0 mm 5 mps 730 mmHg 20%
20:00 +32°C° 0 mm 4 mps 731 mmHg 21%
21:00 +29°C° 0 mm 4 mps 731 mmHg 21%
22:00 +29°C° 0 mm 4 mps 731 mmHg 23%
23:00 +28°C° 0 mm 4 mps 731 mmHg 25%

7 Agosto, Sábado

Tiempo Temperatura Precipitaciones Viento Presión Humedad
00:00 +27°C° 0 mm 4 mps 731 mmHg 27%
01:00 +26°C° 0 mm 4 mps 731 mmHg 29%
02:00 +26°C° 0 mm 4 mps 731 mmHg 32%
03:00 +25°C° 0 mm 4 mps 731 mmHg 35%
04:00 +25°C° 0 mm 4 mps 731 mmHg 36%
05:00 +25°C° 0 mm 4 mps 731 mmHg 37%
06:00 +23°C° 0 mm 4 mps 731 mmHg 38%
07:00 +26°C° 0 mm 4 mps 731 mmHg 33%
08:00 +28°C° 0 mm 5 mps 731 mmHg 28%
09:00 +30°C° 0 mm 5 mps 732 mmHg 23%
10:00 +32°C° 0 mm 5 mps 731 mmHg 21%
11:00 +34°C° 0 mm 6 mps 731 mmHg 19%
12:00 +35°C° 0 mm 6 mps 731 mmHg 16%
13:00 +36°C° 0 mm 6 mps 731 mmHg 16%
14:00 +36°C° 0 mm 6 mps 731 mmHg 15%
15:00 +38°C° 0 mm 6 mps 731 mmHg 14%
16:00 +36°C° 0 mm 6 mps 731 mmHg 15%
17:00 +36°C° 0 mm 6 mps 731 mmHg 15%
18:00 +35°C° 0 mm 5 mps 731 mmHg 15%
19:00 +33°C° 0 mm 5 mps 731 mmHg 17%
20:00 +30°C° 0 mm 4 mps 732 mmHg 19%
21:00 +28°C° 0 mm 4 mps 732 mmHg 21%
22:00 +28°C° 0 mm 4 mps 732 mmHg 23%
23:00 +27°C° 0 mm 4 mps 732 mmHg 26%

8 Agosto, Domingo

Tiempo Temperatura Precipitaciones Viento Presión Humedad
00:00 +26°C° 0 mm 3 mps 732 mmHg 28%
01:00 +26°C° 0 mm 3 mps 733 mmHg 29%
02:00 +25°C° 0 mm 2 mps 733 mmHg 30%
03:00 +25°C° 0 mm 2 mps 733 mmHg 32%
04:00 +25°C° 0 mm 2 mps 733 mmHg 33%
05:00 +25°C° 0 mm 2 mps 733 mmHg 35%
06:00 +25°C° 0 mm 2 mps 734 mmHg 36%
07:00 +26°C° 0 mm 2 mps 734 mmHg 41%
08:00 +27°C° 0 mm 2 mps 735 mmHg 45%
09:00 +28°C° 0 mm 2 mps 736 mmHg 50%
10:00 +29°C° 0 mm 3 mps 736 mmHg 48%
11:00 +31°C° 0 mm 3 mps 736 mmHg 46%
12:00 +33°C° 0 mm 3 mps 736 mmHg 44%
13:00 +33°C° 0 mm 3 mps 736 mmHg 44%
14:00 +33°C° 0 mm 3 mps 735 mmHg 45%
15:00 +33°C° 0 mm 3 mps 735 mmHg 46%
16:00 +31°C° 0 mm 3 mps 735 mmHg 51%
17:00 +30°C° 0 mm 2 mps 735 mmHg 56%
18:00 +29°C° 0 mm 2 mps 735 mmHg 60%
19:00 +27°C° 0 mm 2 mps 736 mmHg 69%
20:00 +26°C° 0 mm 2 mps 737 mmHg 78%
21:00 +24°C° 0 mm 2 mps 737 mmHg 87%
22:00 +25°C° 0.1 mm 2 mps 737 mmHg 87%
23:00 +25°C° 0.1 mm 2 mps 738 mmHg 88%
Mostrar más

Necesitamos Su Consentimiento

Meteoprog y nuestros Proveedores de Servicios pueden almacenar y acceder a sus datos personales como cookies, identificadores de dispositivo u otras tecnologías similares de su dispositivo y procesar dichos datos para personalizar contenido y anuncios, además de ofrecer funciones de redes sociales y analizar el tráfico.

  • Almacenar y/o acceder a información en su dispositivo

    Se puede almacenar o acceder a cookies, identificadores de dispositivo u otra información de su dispositivo para los fines anteriormente indicados.

  • Anuncios y contenido personalizados, medición de anuncios y contenido, percepciones del público, y desarrollo de productos

    Los anuncios y el contenido pueden personalizarse en base a su perfil. Se pueden añadir más datos para personalizar mejor los anuncios y contenidos. Se puede medir el rendimiento de los anuncios y contenidos. Se puede obtener la percepción sobre el público que ha visto los anuncios y contenidos. Dichos datos pueden usarse para desarrollar o mejorar la experiencia del usuario, sistemas y software.

Al hacer clic en ‘Estoy De Acuerdo’ usted permitirá el uso de las cookies, identificadores de dispositivo, balizas web u otras tecnologías similares indicadas. Su configuración puede cambiarse desde el navegador de su dispositivo.

Para ciertos fines, los intereses legítimos pueden ser considerados por encima del consentimiento. Puede leer más sobre ello en nuestra Política de Privacidad y Cookies.